DECAYED
Showing default

FLOCK 4Q 23, 58307 (Decayed)

Orbit data source: Space-Track

FLOCK 4Q 23, 58307 was a payload satellite owned by Planet (US) in SSO that was launched on Sat, 11 Nov 2023 UTC via an FALCON 9 launch vehicle from the Air Force Western Test Range (AFWTR). Payload-class satellites include a variety of spacecraft equipped with specific instruments for various scientific and technological missions. These include communications satellites like Starlink; space stations such as the ISS; scientific satellites like the Hubble; Earth observation satellites from companies like Planet Labs, Umbra, and HawkEye 360; GPS; miniature CubeSats for education and research; and military/defense satellites.

Not visible in the next 10 days
Identifier
58307, 2023-174BD
Orbit
Decayed
Country
Flag of USUS
Related business
Manufacturer
Planet
Mission
Decayed Commercial Imaging
Bus & Motor
CUBESAT 3U, Unknown motor
Mass
5.7 kg wet, 5.7 kg dry
Launch date (UTC)
2023-11-11 (3 years ago)
Launch vehicle
FALCON 9
Launch site
Air Force Western Test Range (AFWTR)
Object type
Payload
Rocket body
Debris
Shape & HBR
Box + 2 Pan, 1.0 m
Radar Cross Section
0.072 m², Medium (>0.1 m² and < 1m²)

Expand to show TLE details & history
Last TLE update: 2 months ago

TLE from 2 months ago
0 FLOCK 4Q 23
1 58307U 23174BD  26189.81672205  .00520074  10865-3  15310-2 0  9990
2 58307  97.3827 286.5102 0007634 251.4671 108.5774 15.92605673149393
Epoch: 2026-07-08T19:36Z
TLE epoch observation values (Epoch: 2026-07-08T19:36:04.785Z)
Latitude
-0.00001°
Longitude
65.7227°
Altitude
299.81 km
Speed
7.727 km/s
True Right ascension
19h 06m 02s
True Declination
0° 00' 00"
Sunlit
Object was in full shadow at epoch
Visualization orbit readout
Latitude
Unknown
Longitude
Unknown
Altitude
Unknown
Speed
Unknown
Apparent Right ascension
Unknown
Apparent Declination
Unknown
Sunlit
N/A
Visualization observer readout
Local Sidereal Time
19:32:28
Azimuth
Unknown
Elevation
Unknown
Doppler factor
Unknown
Orbital elements
Apogee altitude
296.955 km
Perigee altitude
286.771 km
Semi-major axis
6,670 km
Eccentricity
0.00076
Inclination
97.3827°
RAAN
286.5102°
Arg. of periapsis
251.4671°
True anomaly
108.6603°
Mean anomaly
108.5774°
Eccentric anomaly
108.61885°
Mean motion
3.98432 °/min
Orbital period
90.35 mins
BSTAR
0.001531
Loading maneuver chart data...
Computing Atmospheric mass density...
Loading historical data...
Loading historical data...
Loading historical data...
Loading historical data...
Loading historical data...
Loading historical data...
Loading historical data...

Documentation

Showing up to 5 results
|